DRAGRACER 1 (ALCHEMY) (46954 NORAD) Tracking and Keplerian Element Data
This shows tracking and keplerian element data for the satellite.
Feedback or suggestion? Click here.
Element | Value |
Catalog | 46954 |
Name | DRAGRACER 1 (ALCHEMY) |
Epoch Orbit | 895 |
Epoch Day | 17.96809994 |
Epoch Year | 2021 |
RAAN | 157.5251 |
Inclination | 97.3582 |
Eccentricity | 0.0010138 |
Argument of Perigee | 145.6882 |
Mean Anonmoly | 214.5013 |
Mean Motion | 15.26986599 |
Decay Rate | 0.00045546 |
L1 | 1 46954U 20085AB 21017.96809994 .00045546 00000-0 17111-2 0 9995 |
L2 | 2 46954 97.3582 157.5251 0010138 145.6882 214.5013 15.26986599 8955 |
Live tracking and technical data element details for DRAGRACER 1 (ALCHEMY) (NORAD 46954). DRAGRACER 1 (ALCHEMY) can be tracked NOW for your location showing map with azimuth and elevation plus other details from your city location.
Track the satellite on the map from your city or location and see movement details for azimuth, elevation, latitude, longitude, range, height, and movement on the map or in text.
IsCatalogInMostPopularTable: catalog: 46954, numindb: 15
Update: records affected: 1
GetName: 46954 DRAGRACER 1 (ALCHEMY)
Hit Count: updated at: Tue, 19 Jan 2021 01:57:52 GMT